Date String (YYYY-MM-DD hh:mm:ss) UTC,Instrument flags,absolute air pressure of the measurement (hPa),sample flow rate (lpm),inlet stack bypass flow (lpm),air temperature of the measurement (°C),ambient temperature measured by the external sensor (°C),aerosol sample conditioner tube jacket temperature (°C),OPC LED temperature (°C),internal box temperature (°C),relative humidity of the measurement (%),span deviation,mass concentration of particles derived from Lorenz-Mie calculation of OPC scattering (μg/m³),mass concentration of particles derived from Lorenz-Mie calculation of OPC scattering (μg/m³),mass concentration of particles derived from Lorenz-Mie calculation of OPC scattering (μg/m³)
DateTimeUTC,F1_M11,P_M11,Q1_M11,Q2_M11,T1_M11,T2_M11,T3_M11,T4_M11,T5_M11,U1_M11,ZSPAN_M11,X2_M11,X0_M11,X1_M11
2023-09-14 01:00:00,SystemResetWarning,0828.6,5.00,000.00,027.7,024.8,000.0,036.1,029.1,19.2,0000.0,0003.94,0009.29,0003.60
2023-09-14 01:01:00,SystemResetWarning,0828.6,5.00,000.00,027.7,025.2,000.0,036.1,029.1,19.3,0000.0,0003.89,0008.82,0003.59
2023-09-14 01:02:00,SystemResetWarning,0828.6,5.00,000.00,027.7,025.5,000.0,036.1,029.2,19.0,0000.0,0003.87,0008.50,0003.58
2023-09-14 01:03:00,SystemResetWarning,0828.6,4.99,000.00,027.7,025.8,000.0,036.1,029.3,19.2,0000.0,0003.87,0008.17,0003.57
2023-09-14 01:04:00,SystemResetWarning,0828.6,5.00,000.00,027.7,026.1,000.0,036.1,029.4,19.4,0000.0,0003.85,0007.93,0003.56
2023-09-14 01:05:00,SystemResetWarning,0828.6,5.00,000.00,027.8,026.3,000.0,036.1,029.5,19.2,0000.0,0003.88,0008.32,0003.54
2023-09-14 01:06:00,SystemResetWarning,0828.6,4.99,000.00,027.8,026.5,000.0,036.1,029.5,19.4,0000.0,0003.88,0008.36,0003.53
2023-09-14 01:07:00,SystemResetWarning,0828.6,5.00,000.00,027.9,026.7,000.0,036.2,029.6,19.4,0000.0,0003.91,0008.46,0003.51
2023-09-14 01:08:00,SystemResetWarning,0828.6,5.00,000.00,027.9,026.9,000.0,036.2,029.7,18.8,0000.0,0003.92,0008.34,0003.50
2023-09-14 01:09:00,SystemResetWarning,0828.6,4.99,000.00,028.0,027.0,000.0,036.2,029.7,18.4,0000.0,0003.91,0008.31,0003.49
2023-09-14 01:10:00,SystemResetWarning,0828.6,4.99,000.00,028.0,026.6,000.0,036.2,029.7,18.1,0000.0,0003.92,0008.36,0003.47
2023-09-14 01:11:00,SystemResetWarning,0828.6,5.00,000.00,027.9,025.0,000.0,036.2,029.1,17.9,0000.0,0003.93,0007.95,0003.46
2023-09-14 01:12:00,SystemResetWarning,0828.6,5.00,000.00,027.8,024.5,000.0,036.1,029.1,18.0,0000.0,0003.95,0007.84,0003.46
2023-09-14 01:13:00,SystemResetWarning,0828.6,5.01,000.00,027.7,024.7,000.0,036.1,029.1,18.0,0000.0,0003.95,0007.71,0003.46
2023-09-14 01:14:00,SystemResetWarning,0828.6,5.01,000.00,027.7,025.0,000.0,036.1,029.1,18.5,0000.0,0003.94,0007.80,0003.45
2023-09-14 01:15:00,SystemResetWarning,0828.6,5.00,000.00,027.7,025.3,000.0,036.1,029.2,19.1,0000.0,0003.93,0007.73,0003.43
2023-09-14 01:16:00,SystemResetWarning,0828.6,5.00,000.00,027.7,025.6,000.0,036.1,029.3,18.3,0000.0,0003.89,0007.35,0003.43
2023-09-14 01:17:00,SystemResetWarning,0828.6,5.00,000.00,027.8,025.9,000.0,036.1,029.4,18.3,0000.0,0003.84,0007.31,0003.41
2023-09-14 01:18:00,SystemResetWarning,0828.7,5.00,000.00,027.8,026.2,000.0,036.1,029.4,19.1,0000.0,0003.78,0007.06,0003.41
2023-09-14 01:19:00,SystemResetWarning,0828.7,5.01,000.00,027.8,026.4,000.0,036.2,029.5,19.3,0000.0,0003.78,0007.09,0003.41
2023-09-14 01:20:00,SystemResetWarning,0828.7,5.00,000.00,027.9,026.6,000.0,036.2,029.6,19.0,0000.0,0003.80,0007.24,0003.40
2023-09-14 01:21:00,SystemResetWarning,0828.7,5.00,000.00,027.9,026.7,000.0,036.2,029.6,18.9,0000.0,0003.81,0007.28,0003.41
2023-09-14 01:22:00,SystemResetWarning,0828.7,5.00,000.00,028.0,026.9,000.0,036.2,029.7,18.6,0000.0,0003.81,0006.69,0003.43
2023-09-14 01:23:00,SystemResetWarning,0828.7,5.00,000.00,028.0,027.0,000.0,036.2,029.8,18.4,0000.0,0003.79,0007.61,0003.42
2023-09-14 01:24:00,SystemResetWarning,0828.7,5.00,000.00,028.1,027.0,000.0,036.3,029.8,18.2,0000.0,0003.79,0008.08,0003.43
2023-09-14 01:25:00,SystemResetWarning,0828.7,4.98,000.00,028.0,025.5,000.0,036.2,029.3,18.3,0000.0,0003.80,0008.21,0003.43
2023-09-14 01:26:00,SystemResetWarning,0828.7,5.01,000.00,027.9,024.5,000.0,036.2,029.1,18.3,0000.0,0003.80,0008.29,0003.43
2023-09-14 01:27:00,SystemResetWarning,0828.7,5.01,000.00,027.8,024.5,000.0,036.1,029.1,18.3,0000.0,0003.82,0008.38,0003.44
2023-09-14 01:28:00,SystemResetWarning,0828.7,5.01,000.00,027.7,024.8,000.0,036.1,029.1,18.3,0000.0,0003.82,0008.29,0003.44
2023-09-14 01:29:00,SystemResetWarning,0828.7,4.99,000.00,027.7,025.1,000.0,036.2,029.2,18.6,0000.0,0003.84,0008.36,0003.45
2023-09-14 01:30:00,SystemResetWarning,0828.7,4.99,000.00,027.7,025.4,000.0,036.2,029.2,18.6,0000.0,0003.84,0008.45,0003.46
2023-09-14 01:31:00,SystemResetWarning,0828.7,5.01,000.00,027.8,025.7,000.0,036.2,029.3,18.8,0000.0,0003.82,0008.34,0003.46
2023-09-14 01:32:00,SystemResetWarning,0828.7,5.01,000.00,027.8,026.0,000.0,036.2,029.4,18.8,0000.0,0003.86,0008.38,0003.48
2023-09-14 01:33:00,SystemResetWarning,0828.7,5.00,000.00,027.8,026.2,000.0,036.2,029.5,18.8,0000.0,0003.88,0009.38,0003.49
2023-09-14 01:34:00,SystemResetWarning,0828.7,5.00,000.00,027.9,026.4,000.0,036.2,029.5,18.9,0000.0,0003.91,0009.64,0003.51
2023-09-14 01:35:00,SystemResetWarning,0828.7,5.00,000.00,027.9,026.6,000.0,036.2,029.6,18.9,0000.0,0003.91,0009.63,0003.54
2023-09-14 01:36:00,SystemResetWarning,0828.7,4.99,000.00,027.9,026.7,000.0,036.2,029.6,19.2,0000.0,0003.95,0009.39,0003.55
2023-09-14 01:37:00,SystemResetWarning,0828.7,5.00,000.00,028.0,026.8,000.0,036.2,029.7,19.5,0000.0,0004.00,0009.38,0003.58
2023-09-14 01:38:00,SystemResetWarning,0828.7,5.00,000.00,028.0,026.9,000.0,036.3,029.7,19.3,0000.0,0004.05,0009.97,0003.62
2023-09-14 01:39:00,SystemResetWarning,0828.8,5.00,000.00,028.1,027.0,000.0,036.3,029.8,19.1,0000.0,0004.10,0010.01,0003.67
2023-09-14 01:40:00,SystemResetWarning,0828.8,4.99,000.00,028.1,026.3,000.0,036.3,029.6,19.1,0000.0,0004.13,0010.00,0003.70
2023-09-14 01:41:00,SystemResetWarning,0828.8,5.00,000.00,028.0,024.7,000.0,036.2,029.2,19.3,0000.0,0004.15,0009.92,0003.73
2023-09-14 01:42:00,SystemResetWarning,0828.8,5.01,000.00,027.9,024.3,000.0,036.2,029.2,19.7,0000.0,0004.17,0010.10,0003.76
2023-09-14 01:43:00,SystemResetWarning,0828.8,5.01,000.00,027.8,024.5,000.0,036.1,029.1,19.8,0000.0,0004.15,0010.36,0003.77
2023-09-14 01:44:00,SystemResetWarning,0828.8,5.00,000.00,027.7,024.8,000.0,036.2,029.1,20.0,0000.0,0004.13,0009.73,0003.77
2023-09-14 01:45:00,SystemResetWarning,0828.8,5.00,000.00,027.7,025.2,000.0,036.2,029.2,19.9,0000.0,0004.13,0008.85,0003.77
2023-09-14 01:46:00,SystemResetWarning,0828.8,5.00,000.00,027.7,025.5,000.0,036.2,029.3,20.2,0000.0,0004.17,0008.13,0003.78
2023-09-14 01:47:00,SystemResetWarning,0828.8,5.00,000.00,027.8,025.8,000.0,036.2,029.3,20.4,0000.0,0004.19,0008.20,0003.78
2023-09-14 01:48:00,SystemResetWarning,0828.9,4.99,000.00,027.8,026.0,000.0,036.2,029.4,20.4,0000.0,0004.18,0008.27,0003.78
2023-09-14 01:49:00,SystemResetWarning,0828.9,5.00,000.00,027.8,026.2,000.0,036.2,029.4,20.3,0000.0,0004.16,0008.00,0003.77
2023-09-14 01:50:00,SystemResetWarning,0828.9,5.00,000.00,027.8,026.4,000.0,036.2,029.5,20.0,0000.0,0004.13,0007.76,0003.76
2023-09-14 01:51:00,SystemResetWarning,0829.0,4.99,000.00,027.9,026.5,000.0,036.2,029.5,19.9,0000.0,0004.15,0008.15,0003.75
2023-09-14 01:52:00,SystemResetWarning,0829.0,5.00,000.00,027.9,026.7,000.0,036.2,029.6,20.1,0000.0,0004.15,0008.55,0003.75
2023-09-14 01:53:00,SystemResetWarning,0828.9,5.00,000.00,027.9,026.8,000.0,036.2,029.6,19.9,0000.0,0004.17,0008.62,0003.76
2023-09-14 01:54:00,SystemResetWarning,0829.0,5.00,000.00,028.0,026.9,000.0,036.2,029.7,19.6,0000.0,0004.17,0008.32,0003.76
2023-09-14 01:55:00,SystemResetWarning,0828.9,5.01,000.00,028.0,027.0,000.0,036.3,029.7,19.1,0000.0,0004.18,0008.42,0003.76
2023-09-14 01:56:00,SystemResetWarning,0829.0,5.00,000.00,028.1,027.0,000.0,036.3,029.8,18.7,0000.0,0004.21,0008.46,0003.77
2023-09-14 01:57:00,SystemResetWarning,0829.0,4.98,000.00,028.1,026.4,000.0,036.3,029.6,18.3,0000.0,0004.22,0008.46,0003.77
2023-09-14 01:58:00,SystemResetWarning,0829.0,5.00,000.00,028.0,024.7,000.0,036.2,029.1,18.5,0000.0,0004.19,0008.35,0003.78
2023-09-14 01:59:00,SystemResetWarning,0829.0,5.00,000.00,027.9,024.3,000.0,036.2,029.1,18.5,0000.0,0004.20,0008.57,0003.80
